TimePDT,TemperatureF,Dew PointF,Humidity,Sea Level PressureIn,VisibilityMPH,Wind Direction,Wind SpeedMPH,Gust SpeedMPH,PrecipitationIn,Events,Conditions,WindDirDegrees,DateUTC
12:53 AM,61.0,52.0,72,30.21,10.0,SSE,3.5,-,N/A,,Partly Cloudy,160,2013-07-18 07:53:00
1:53 AM,60.1,52.0,75,30.21,10.0,South,3.5,-,N/A,,Partly Cloudy,180,2013-07-18 08:53:00
2:53 AM,60.1,53.1,78,30.21,10.0,South,3.5,-,N/A,,Overcast,170,2013-07-18 09:53:00
3:53 AM,61.0,52.0,72,30.21,10.0,Calm,Calm,-,N/A,,Overcast,0,2013-07-18 10:53:00
4:53 AM,61.0,52.0,72,30.21,10.0,WSW,3.5,-,N/A,,Overcast,250,2013-07-18 11:53:00
5:53 AM,61.0,53.1,75,30.22,10.0,Calm,Calm,-,N/A,,Overcast,0,2013-07-18 12:53:00
6:53 AM,61.0,53.1,75,30.23,10.0,SW,3.5,-,N/A,,Overcast,220,2013-07-18 13:53:00
7:53 AM,63.0,53.1,70,30.23,10.0,Calm,Calm,-,N/A,,Overcast,0,2013-07-18 14:53:00
8:53 AM,64.0,54.0,70,30.23,10.0,Variable,4.6,-,N/A,,Overcast,0,2013-07-18 15:53:00
9:53 AM,64.9,54.0,68,30.23,10.0,Calm,Calm,-,N/A,,Overcast,0,2013-07-18 16:53:00
10:00 AM,66.2,53.6,64,30.23,10.0,Calm,Calm,-,N/A,,Overcast,0,2013-07-18 17:00:00
10:53 AM,66.9,54.0,63,30.22,10.0,Calm,Calm,-,N/A,,Overcast,0,2013-07-18 17:53:00
11:13 AM,68.0,53.6,60,30.22,10.0,WNW,5.8,-,N/A,,Overcast,300,2013-07-18 18:13:00
11:53 AM,69.1,54.0,58,30.21,10.0,WSW,5.8,-,N/A,,Mostly Cloudy,250,2013-07-18 18:53:00
12:53 PM,71.1,53.1,53,30.21,10.0,WNW,5.8,-,N/A,,Mostly Cloudy,290,2013-07-18 19:53:00
1:53 PM,73.9,54.0,50,30.19,10.0,Calm,Calm,-,N/A,,Scattered Clouds,0,2013-07-18 20:53:00
2:53 PM,73.9,54.0,50,30.18,10.0,NNW,3.5,-,N/A,,Clear,330,2013-07-18 21:53:00
3:53 PM,75.9,54.0,46,30.16,10.0,Variable,3.5,-,N/A,,Clear,0,2013-07-18 22:53:00
4:53 PM,77.0,54.0,45,30.14,10.0,NNW,6.9,-,N/A,,Clear,330,2013-07-18 23:53:00
5:53 PM,78.1,54.0,43,30.13,10.0,NNW,5.8,-,N/A,,Clear,340,2013-07-19 00:53:00
6:53 PM,78.1,54.0,43,30.12,10.0,NNW,5.8,-,N/A,,Clear,330,2013-07-19 01:53:00
7:53 PM,73.9,54.0,50,30.12,10.0,WNW,5.8,-,N/A,,Clear,300,2013-07-19 02:53:00
8:53 PM,70.0,53.1,55,30.13,10.0,NW,3.5,-,N/A,,Clear,310,2013-07-19 03:53:00
9:53 PM,68.0,54.0,61,30.14,10.0,Calm,Calm,-,N/A,,Clear,0,2013-07-19 04:53:00
10:53 PM,66.0,54.0,65,30.14,10.0,Calm,Calm,-,N/A,,Clear,0,2013-07-19 05:53:00
11:53 PM,66.0,54.0,65,30.14,10.0,NNW,4.6,-,N/A,,Clear,340,2013-07-19 06:53:00